FALCON 9 DEB (54106 NORAD) Tracking and Keplerian Element Data

This shows tracking and keplerian element data for the satellite.

Feedback or suggestion? Click here.




ElementValue
Catalog54106
NameFALCON 9 DEB
Epoch Orbit224
Epoch Day307.48375208
Epoch Year2022
RAAN76.9719
Inclination53.2071
Eccentricity0.0026977
Argument of Perigee87.9533
Mean Anonmoly272.4599
Mean Motion16.26650547
Decay Rate0.03289725
L11 54106U 22136BH 22307.48375208 .03289725 12006-4 86168-3 0 9992
L22 54106 53.2071 76.9719 0026977 87.9533 272.4599 16.26650547 2249



Live tracking and technical data element details for FALCON 9 DEB (NORAD 54106). FALCON 9 DEB can be tracked NOW for your location showing map with azimuth and elevation plus other details from your city location.







IsCatalogInMostPopularTable: catalog: 54106, numindb: 2
Update: records affected: 1



GetName: 54106 FALCON 9 DEB

Hit Count: updated at: Sun, 11 Jun 2023 01:18:52 GMT